[[{"header":{"parameterUnit":"m.s-1","parameterCategory":1,"la1":30.2991,"la2":30.254,"lo1":-89.0895,"lo2":-89.0444,"dy":0.0017,"dx":0.0017,"nx":28,"ny":28,"refTime":"2024-07-11T03:00:00:Z","depth":0,"parameterNumber":2,"parameterNumberName":"U-component_of_WINDS"},"data":[0,0,0,0,0,0,0,0,0,0,0,0,0,0,0,0,0,0,0,0,0,0,0,0,0,0,0,0,0,0,0,0,0,0,0,0,0,0,0,0,0,0,0,0,0,0,0,0,0,0,0,0,0,0,0,0,0,0,1.5999,1.5999,0,1.6017,1.6017,1.6017,1.5988,1.5987,1.5986,1.5985,1.6005,1.6006,1.6007,0,0,0,0,0,0,0,0,0,0,0,0,0,1.5941,1.5942,1.5999,1.5999,1.5999,1.6017,1.6017,1.6017,1.5988,1.5987,1.5986,1.5985,1.6004,1.6006,1.6008,0,0,0,0,0,0,0,0,0,0,0,0,0,1.5963,1.5942,1.5999,1.5987,1.5986,1.6016,1.6017,1.6017,1.5988,1.5987,1.5985,1.5984,1.6004,1.6006,1.6008,1.6051,0,0,1.6014,1.6015,0,0,0,0,0,0,0,0,1.5962,1.5965,1.5988,1.5988,1.5987,1.5998,1.6004,1.6029,1.5989,1.5988,1.5985,1.5983,1.6004,1.6006,1.6013,1.6052,1.6053,1.6015,1.6016,1.6017,1.6018,0,0,0,0,0,0,0,1.596,1.5964,1.6006,1.5989,1.5988,1.5981,1.5983,1.6008,1.6004,1.5988,1.5985,1.5988,1.6003,1.6011,1.6013,1.6053,1.6015,1.6017,1.6018,1.6019,1.613,1.6131,0,0,0,0,0,0,1.596,1.5963,1.6005,1.6006,1.597,1.5983,1.5985,1.5996,1.6004,1.6003,1.5989,1.5987,1.6008,1.601,1.6013,1.6065,1.6017,1.6019,1.602,1.6128,1.613,1.6132,0,0,0,0,0,0,1.5959,1.5964,1.6004,1.5984,1.5989,1.5986,1.5999,1.5997,1.6005,1.6005,1.6004,1.5997,1.6007,1.601,1.6042,1.6065,1.602,1.6022,1.6126,1.6129,1.6131,1.6168,0,0,0,0,0,0,1.5957,1.5964,1.598,1.5985,1.599,1.6032,1.6,1.5999,1.6008,1.6005,1.6012,1.6012,1.6006,1.6039,1.6044,1.6067,1.6024,1.6124,1.6127,1.613,1.6165,1.6172,1.6177,0,0,0,0,0,1.5956,1.599,1.5981,1.5986,1.601,1.6034,1.6037,1.6028,1.601,1.6027,1.6027,1.6012,1.6062,1.6042,1.6048,1.6072,1.6123,1.6126,1.613,1.6162,1.617,1.6177,0,0,0,0,0,0,1.5988,1.599,1.598,1.6017,1.6025,1.6029,1.6049,1.6037,1.6051,1.6047,1.6037,1.6039,1.6073,1.6076,1.6054,1.6115,1.6089,1.6094,1.6112,1.6119,1.6126,1.6124,1.6025,0,0,0,0,0,1.5999,1.6018,1.6019,1.6051,1.6056,1.6052,1.6062,1.6055,1.6063,1.6067,1.6069,1.6078,1.6096,1.6108,1.6124,1.6165,1.6167,1.6185,1.6191,1.6196,1.6201,1.6223,1.6231,1.6144,1.6144,1.6144,0,0,1.6023,1.6026,1.6039,1.6058,1.6064,1.6084,1.6055,1.6078,1.6093,1.607,1.61,1.6103,1.6112,1.6149,1.6165,1.6152,1.6225,1.6201,1.6205,1.6207,1.6228,1.6236,1.6243,1.6147,1.6146,1.6146,0,0,1.6076,1.6081,1.6108,1.6115,1.6124,1.6121,1.6127,1.6133,1.6133,1.6163,1.6147,1.6165,1.6196,1.6204,1.6211,1.6269,1.6256,1.6274,1.6307,1.6329,1.6336,1.6342,1.6362,1.637,1.6279,1.6279,1.6279,0,1.6105,1.6134,1.6124,1.6148,1.6157,1.6138,1.6166,1.6173,1.6187,1.6194,1.6179,1.6218,1.6223,1.6261,1.6275,1.6282,1.629,1.6273,1.6336,1.6341,1.6347,1.6367,1.6374,1.6281,1.6281,1.6281,1.6281,0,1.6168,1.6189,1.621,1.6224,1.6236,1.6262,1.6256,1.6269,1.6262,1.6261,1.6292,1.6297,1.6315,1.6323,1.6316,1.6361,1.6353,1.6337,1.6311,1.6358,1.6376,1.6383,1.6284,1.6284,1.6283,1.6282,0,0,1.6242,1.6251,1.6259,1.6265,1.6274,1.629,1.6315,1.6332,1.6343,1.6354,1.6375,1.6402,1.6388,1.6397,1.639,1.641,1.6455,1.6392,1.6392,1.6403,1.6506,1.6517,1.6526,1.6447,1.6448,1.6449,1.6505,0,1.6295,1.6338,1.6331,1.6373,1.6392,1.6375,1.6397,1.6405,1.6405,1.6422,1.6422,1.6441,1.6421,1.6427,1.6445,1.6446,1.6476,1.6442,1.6467,1.6468,1.6465,1.6535,1.6548,1.66,1.6512,1.6513,1.6514,0,1.6363,1.6376,1.642,1.6426,1.6434,1.6454,1.6469,1.6485,1.6495,1.6493,1.6504,1.6494,1.652,1.6494,1.653,1.6507,1.6517,1.6519,1.6521,1.6523,1.6493,1.6539,1.6616,1.6624,1.6525,1.6524,1.6523,0,1.6412,1.6441,1.6471,1.6477,1.6485,1.65,1.6504,1.6512,1.6522,1.6536,1.6543,1.6559,1.6568,1.6582,1.6577,1.6558,1.6614,1.6587,1.6614,1.6614,1.6626,1.6625,1.6705,1.6633,1.6632,1.6632,1.6632,0,1.6472,1.65,1.6493,1.6512,1.6543,1.6534,1.6565,1.6567,1.6575,1.6594,1.658,1.6598,1.6591,1.6609,1.6605,1.6636,1.664,1.664,1.6638,1.6641,1.6641,1.6647,1.6643,1.6634,1.6634,1.6633,1.6633,0,1.6532,1.6529,1.6561,1.6566,1.6568,1.6591,1.6596,1.6613,1.6612,1.6637,1.6642,1.6641,1.6662,1.6658,1.6681,1.6678,1.6717,1.6711,1.6713,1.6712,1.6739,1.6736,1.6826,1.6837,1.6757,1.6758,1.6758,0,1.6571,1.6592,1.66,1.6611,1.6616,1.6636,1.6647,1.6639,1.6651,1.6664,1.668,1.67,1.6715,1.6749,1.675,1.6768,1.6762,1.6792,1.6765,1.6767,1.6763,1.6761,1.6764,1.6798,1.6799,1.6799,1.68,0,1.664,1.6637,1.6653,1.6669,1.6683,1.6695,1.6706,1.6716,1.671,1.6725,1.6746,1.6757,1.6781,1.68,1.6817,1.6821,1.681,1.6809,1.6816,1.6819,1.6819,1.6819,1.6728,1.6807,1.6806,1.6806,1.6805,1.6805,1.669,1.6708,1.6717,1.6735,1.6743,1.6754,1.6771,1.6772,1.6789,1.6807,1.6802,1.6826,1.6835,1.6856,1.6863,1.6882,1.6871,1.6881,1.6884,1.6886,1.6889,1.6816,1.6885,1.6885,1.6885,1.6884,1.6884,0,1.6758,1.6763,1.678,1.6796,1.6811,1.6799,1.6811,1.6824,1.6845,1.6855,1.687,1.6894,1.6913,1.6916,1.6935,1.6949,1.6944,1.6954,1.6953,1.6954,1.6898,1.689,1.6958,1.6958,1.6958,1.6958,1.6958,1.6958,1.6795,1.6825,1.6824,1.6858,1.6862,1.6885,1.6893,1.6903,1.6911,1.6939,1.6954,1.6956,1.6964,1.6982,1.6999,1.7,1.7007,1.7019,1.7018,1.6965,1.6958,1.6951,1.6944,1.7021,1.7021,1.7072,1.7072,1.7073]},{"header":{"parameterUnit":"m.s-1","parameterCategory":1,"la1":30.2991,"la2":30.254,"lo1":-89.0895,"lo2":-89.0444,"dy":0.0017,"dx":0.0017,"nx":28,"ny":28,"refTime":"2024-07-11T03:00:00:Z","depth":0,"parameterNumber":3,"parameterNumberName":"V-component_of_WINDS"},"data":[0,0,0,0,0,0,0,0,0,0,0,0,0,0,0,0,0,0,0,0,0,0,0,0,0,0,0,0,0,0,0,0,0,0,0,0,0,0,0,0,0,0,0,0,0,0,0,0,0,0,0,0,0,0,0,0,0,0,-1.056,-1.056,0,-1.0554,-1.0554,-1.0554,-1.0519,-1.0518,-1.0517,-1.0516,-1.051,-1.0511,-1.0511,0,0,0,0,0,0,0,0,0,0,0,0,0,-1.0543,-1.0543,-1.056,-1.056,-1.056,-1.0554,-1.0554,-1.0554,-1.0519,-1.0518,-1.0517,-1.0516,-1.051,-1.0511,-1.0512,0,0,0,0,0,0,0,0,0,0,0,0,0,-1.0545,-1.0543,-1.056,-1.0542,-1.054,-1.0554,-1.0554,-1.0554,-1.0519,-1.0518,-1.0516,-1.0515,-1.051,-1.0511,-1.0512,-1.0543,0,0,-1.0515,-1.0515,0,0,0,0,0,0,0,0,-1.0545,-1.0545,-1.0545,-1.0543,-1.0541,-1.0536,-1.0545,-1.055,-1.0519,-1.0527,-1.0516,-1.0515,-1.052,-1.052,-1.0521,-1.0543,-1.0542,-1.0515,-1.0515,-1.0516,-1.0516,0,0,0,0,0,0,0,-1.0545,-1.0546,-1.0558,-1.0545,-1.0543,-1.0534,-1.0533,-1.0546,-1.0531,-1.0526,-1.0524,-1.0523,-1.0519,-1.0521,-1.0521,-1.0542,-1.0515,-1.0515,-1.0516,-1.0516,-1.0589,-1.059,0,0,0,0,0,0,-1.0547,-1.0546,-1.0558,-1.0558,-1.054,-1.0535,-1.0534,-1.0539,-1.053,-1.0528,-1.0524,-1.0522,-1.052,-1.052,-1.0521,-1.0556,-1.0516,-1.0517,-1.0517,-1.0587,-1.0589,-1.059,0,0,0,0,0,0,-1.0547,-1.0548,-1.0558,-1.0551,-1.0552,-1.0537,-1.0543,-1.0539,-1.0541,-1.0529,-1.0526,-1.0529,-1.0519,-1.0519,-1.0538,-1.0556,-1.0517,-1.0518,-1.0586,-1.0588,-1.059,-1.0629,0,0,0,0,0,0,-1.0546,-1.0549,-1.056,-1.0551,-1.0552,-1.0575,-1.0544,-1.054,-1.0543,-1.0539,-1.0533,-1.0531,-1.0518,-1.0536,-1.0539,-1.0556,-1.0519,-1.0584,-1.0587,-1.0589,-1.0626,-1.0632,-1.0637,0,0,0,0,0,-1.0546,-1.0572,-1.0561,-1.0563,-1.0566,-1.0576,-1.0577,-1.0561,-1.0545,-1.0556,-1.0548,-1.0531,-1.0554,-1.0539,-1.0541,-1.0559,-1.0583,-1.0586,-1.0589,-1.0623,-1.0631,-1.0637,0,0,0,0,0,0,-1.0583,-1.057,-1.0558,-1.0582,-1.058,-1.057,-1.0584,-1.057,-1.0573,-1.057,-1.055,-1.0549,-1.057,-1.0567,-1.055,-1.0589,-1.0565,-1.0569,-1.059,-1.0597,-1.0603,-1.0603,-1.0519,0,0,0,0,0,-1.0594,-1.0603,-1.0591,-1.0613,-1.0613,-1.0599,-1.0603,-1.0591,-1.0589,-1.0588,-1.0582,-1.058,-1.0587,-1.0592,-1.0598,-1.0625,-1.0623,-1.0639,-1.0645,-1.0649,-1.0652,-1.0666,-1.0673,-1.06,-1.06,-1.06,0,0,-1.0617,-1.0611,-1.0618,-1.0621,-1.0618,-1.0628,-1.0599,-1.0611,-1.0618,-1.059,-1.0607,-1.0602,-1.0599,-1.0622,-1.0632,-1.062,-1.0672,-1.0653,-1.0657,-1.0658,-1.067,-1.0677,-1.0683,-1.0602,-1.0602,-1.0602,0,0,-1.0663,-1.066,-1.0677,-1.0675,-1.0672,-1.0662,-1.0667,-1.0659,-1.0654,-1.0671,-1.065,-1.0659,-1.0671,-1.067,-1.0671,-1.0717,-1.0701,-1.0719,-1.0749,-1.0763,-1.0768,-1.0773,-1.0789,-1.0795,-1.0723,-1.0723,-1.0723,0,-1.0692,-1.0706,-1.0688,-1.0701,-1.0703,-1.0678,-1.0696,-1.0695,-1.0694,-1.0696,-1.0682,-1.0697,-1.0694,-1.0716,-1.0727,-1.0729,-1.0733,-1.072,-1.0769,-1.0774,-1.0778,-1.0793,-1.0799,-1.0725,-1.0725,-1.0724,-1.0724,0,-1.0741,-1.0751,-1.0766,-1.0765,-1.0768,-1.0784,-1.0769,-1.0775,-1.0763,-1.0755,-1.0772,-1.0767,-1.0771,-1.0775,-1.0764,-1.0796,-1.0788,-1.0772,-1.0748,-1.0787,-1.0801,-1.0807,-1.0728,-1.0727,-1.0727,-1.0726,0,0,-1.081,-1.08,-1.0805,-1.0804,-1.0799,-1.0806,-1.0821,-1.0824,-1.083,-1.083,-1.0841,-1.0852,-1.0837,-1.0838,-1.0826,-1.0839,-1.0875,-1.0821,-1.082,-1.0831,-1.091,-1.0922,-1.0929,-1.0865,-1.0866,-1.0866,-1.091,0,-1.0854,-1.0878,-1.0863,-1.0889,-1.0898,-1.0875,-1.0887,-1.0885,-1.0878,-1.0885,-1.0877,-1.0885,-1.0864,-1.0865,-1.0876,-1.0868,-1.0891,-1.0865,-1.0875,-1.0876,-1.0876,-1.0936,-1.0949,-1.099,-1.0915,-1.0916,-1.0917,0,-1.0909,-1.0911,-1.0938,-1.093,-1.0933,-1.0945,-1.0947,-1.0954,-1.0951,-1.0945,-1.0947,-1.0932,-1.0945,-1.0922,-1.094,-1.0923,-1.0927,-1.0923,-1.0925,-1.0925,-1.0899,-1.0938,-1.1003,-1.101,-1.0926,-1.0925,-1.0924,0,-1.0957,-1.0966,-1.0983,-1.0983,-1.0975,-1.0984,-1.0981,-1.0976,-1.098,-1.0982,-1.0984,-1.0987,-1.0989,-1.0993,-1.0979,-1.0963,-1.1,-1.0975,-1.0995,-1.0996,-1.1004,-1.1003,-1.1071,-1.1007,-1.1006,-1.1006,-1.1006,0,-1.1007,-1.1024,-1.1004,-1.1015,-1.1034,-1.1016,-1.1036,-1.103,-1.1027,-1.1036,-1.1016,-1.1025,-1.1007,-1.1015,-1.1004,-1.1021,-1.1022,-1.1018,-1.1015,-1.102,-1.102,-1.1021,-1.1018,-1.1008,-1.1008,-1.1007,-1.1007,0,-1.1063,-1.1051,-1.1068,-1.1058,-1.1056,-1.1071,-1.1063,-1.1072,-1.1064,-1.1076,-1.1078,-1.1065,-1.1072,-1.1059,-1.1065,-1.1058,-1.1082,-1.1075,-1.1083,-1.1081,-1.1101,-1.11,-1.1171,-1.118,-1.1111,-1.1111,-1.1112,0,-1.1096,-1.1109,-1.1101,-1.1106,-1.1104,-1.1111,-1.1114,-1.1098,-1.1102,-1.11,-1.111,-1.1116,-1.1119,-1.1133,-1.1124,-1.1129,-1.1121,-1.1146,-1.1122,-1.1126,-1.1121,-1.1121,-1.1122,-1.1151,-1.1152,-1.1152,-1.1153,0,-1.1156,-1.1149,-1.1154,-1.1157,-1.1161,-1.1163,-1.1163,-1.1168,-1.1151,-1.1156,-1.1163,-1.1167,-1.1173,-1.1179,-1.1181,-1.1178,-1.1163,-1.1161,-1.1166,-1.117,-1.1175,-1.1172,-1.1096,-1.1159,-1.1159,-1.1158,-1.1158,-1.1158,-1.1202,-1.1212,-1.1208,-1.1214,-1.1212,-1.1213,-1.1221,-1.1214,-1.1219,-1.1223,-1.1213,-1.1223,-1.122,-1.1221,-1.122,-1.1228,-1.1217,-1.1224,-1.1226,-1.1228,-1.1231,-1.1174,-1.1228,-1.1228,-1.1228,-1.1228,-1.1227,0,-1.126,-1.1256,-1.1262,-1.1263,-1.1268,-1.1253,-1.1252,-1.1257,-1.1266,-1.1264,-1.1268,-1.1277,-1.1283,-1.1275,-1.1279,-1.1287,-1.128,-1.1289,-1.1288,-1.1287,-1.124,-1.1236,-1.1294,-1.1294,-1.1294,-1.1294,-1.1294,-1.1294,-1.1291,-1.1308,-1.13,-1.1315,-1.1311,-1.1321,-1.1322,-1.1322,-1.1321,-1.1331,-1.1336,-1.133,-1.1326,-1.133,-1.1335,-1.1332,-1.1335,-1.1346,-1.1341,-1.1297,-1.1291,-1.1284,-1.128,-1.1346,-1.1347,-1.1387,-1.1387,-1.1388]}]]